Regional Weather Roundup
Issued by NWS

Home | Current Version | Previous Version | Graphics & Text | Print | Product List | Glossary On
Versions: 1 2 3 4 5 6 7 8 9 10 11 12 13 14 15 16 17 18 19 20 21 22 23 24 25 26 27 28 29 30 31 32 33 34 35 36 37 38 39 40 41 42 43 44 45 46 47 48 49 50
000
ASUS43 KTOP 040359
RWRKS

WEATHER ROUNDUP FOR KANSAS
NATIONAL WEATHER SERVICE GOODLAND KS
1000 PM CST SAT DEC 03 2016

NOTE:  "FAIR" INDICATES FEW OR NO CLOUDS BELOW 12,000 FEET WITH NO
SIGNIFICANT WEATHER AND/OR OBSTRUCTIONS TO VISIBILITY.

KSZ001>006-013>018-027>032-041>047-040500-
NORTHWEST KANSAS

CITY           SKY/WX    TMP DP  RH WIND       PRES   REMARKS
GOODLAND       CLEAR     26  24  92 W9        30.02R
HAYS           LGT RAIN  33  32  96 CALM      30.06S FOG
HILL CITY      FOG       32  32 100 S3        30.05S VSB 3/4
RUSSELL        LGT RAIN  34  34 100 CALM      30.04F FOG
$$

KSZ061>065-074>080-084>089-040500-
SOUTHWEST KANSAS

CITY           SKY/WX    TMP DP  RH WIND       PRES   REMARKS
DODGE CITY     LGT RAIN  38  38 100 CALM      30.04S FOG
ELKHART          N/A     34  30  85 W2          N/A
GARDEN CITY    CLOUDY    36  35  96 CALM      30.03R FOG
GREAT BEND     RAIN      40  39  97 S3        30.06S FOG
LIBERAL        CLOUDY    39  34  81 CALM      30.04R
$$

KSZ066>073-081>083-090>101-040500-
SOUTHEAST KANSAS

CITY           SKY/WX    TMP DP  RH WIND       PRES   REMARKS
CHANUTE        LGT RAIN  43  40  89 E9        30.09F FOG
COFFEYVILLE    CLOUDY    43  41  93 E7        30.10S
HUTCHINSON     LGT RAIN  41  40  96 E5        30.08S FOG
MEDICINE LODGE   N/A     40  39  97 E3        30.06S
NEWTON         LGT RAIN  39  39 100 CALM      30.08S FOG
PARSONS        CLOUDY    43  41  93 VRB5      30.11R
WICHITA INTL   LGT RAIN  41  40  96 E3        30.07S FOG
WICHITA JABRA  LGT RAIN  40  40 100 CALM      30.07S FOG
WICHITA MCCONL LGT RAIN  41  39  93 NE3       30.08R FOG
WINFIELD       LGT RAIN  42  42 100 SE5       30.08S FOG
$$

KSZ007>012-019>026-033>040-048>060-102>105-040500-
NORTHEAST KANSAS

CITY           SKY/WX    TMP DP  RH WIND       PRES   REMARKS
CONCORDIA      LGT RAIN  37  37 100 SW5       30.07S
EMPORIA        LGT RAIN  40  39  97 CALM      30.08F
LAWRENCE       LGT RAIN  42  39  89 E3        30.11S
MANHATTAN      RAIN      41  39  93 S6        30.09S FOG
MARYSVILLE     LGT RAIN  37  36  93 S7        30.07S
OLATHE IND     LGT RAIN  43  39  86 S12       30.11F
OLATHE EXE     LGT RAIN  42  37  82 S10       30.11S
SALINA         LGT RAIN  41  40  96 S8        30.08F FOG
TOPEKA BILLARD LGT RAIN  41  38  89 CALM      30.11S
TOPEKA FORBES  LGT RAIN  42  39  89 CALM      30.10S FOG
$$



USA.gov is the U.S. government's official web portal to all federal, state and local government web resources and services.